FW8580 Weather Reports


time (UTC)temp
F
wind
direction
speed
knots
gust
knots
rain 1hr
in
rain 24hr
in
rain mn
in
humidity
%
barometer
mb
20260504050002 48 114 0.0 0.9 0.00 0.00 0.00 51 1016.3
20260504044459 48 2 0.0 0.9 0.00 0.00 0.00 49 1016.2
20260504043000 48 53 0.0 0.9 0.00 0.00 0.00 49 1015.9
20260504042021 48 196 0.0 0.9 0.00 0.00 0.00 48 1015.9
20260504031501 48 48 0.0 0.9 0.00 0.00 0.00 48 1016.4
20260504030000 48 308 0.0 0.9 0.00 0.00 0.00 47 1016.3
20260504024502 48 328 0.0 0.9 0.00 0.00 0.00 47 1016.4
20260504021459 49 335 0.0 0.0 0.00 0.00 0.00 45 1016.3
20260504020000 49 357 0.0 0.9 0.00 0.00 0.00 43 1016.1
20260504014458 49 91 0.0 0.9 0.00 0.00 0.00 42 1016.1
20260504013000 50 227 0.0 0.9 0.00 0.00 0.00 42 1015.9
20260504011459 50 232 0.0 0.9 0.00 0.00 0.00 41 1015.7
20260504005959 50 210 0.0 0.9 0.00 0.00 0.00 40 1015.7
20260504004502 50 178 0.0 0.9 0.00 0.00 0.00 39 1015.6
20260504002959 51 217 0.0 0.0 0.00 0.00 0.00 38 1015.3
20260504001504 52 243 0.0 0.0 0.00 0.00 0.00 36 1015.4
20260504000002 54 9 0.0 0.0 0.00 0.00 0.00 34 1015.5
20260503232959 55 330 0.0 0.0 0.00 0.00 0.00 32 1015.4
20260503231459 56 236 0.0 0.9 0.00 0.00 0.00 31 1015.3
20260503230002 57 329 0.0 0.9 0.00 0.00 0.00 33 1015.1
20260503224458 57 225 0.0 0.9 0.00 0.00 0.00 32 1015.1
20260503223001 59 326 0.9 2.6 0.00 0.00 0.00 30 1015.3
20260503221507 60 248 0.0 5.2 0.00 0.00 0.00 30 1015.3
20260503215958 61 19 0.0 2.6 0.00 0.00 0.00 30 1015.2
20260503212959 58 230 0.0 5.2 0.00 0.00 0.00 31 1015.6
20260503211458 60 143 0.0 2.6 0.00 0.00 0.00 32 1015.7
20260503210002 59 251 0.0 1.7 0.00 0.00 0.00 32 1015.7
20260503204458 58 224 0.0 7.0 0.00 0.00 0.00 34 1015.6
20260503195959 56 234 0.0 6.1 0.00 0.00 0.00 34 1016.1
20260503194457 57 233 0.0 3.5 0.00 0.00 0.00 30 1016.2
20260503193009 56 127 0.0 3.5 0.00 0.00 0.00 37 1016.4
20260503191500 54 235 0.0 5.2 0.00 0.00 0.00 40 1016.4
20260503190001 52 240 1.7 7.8 0.00 0.00 0.00 37 1016.5
20260503184459 53 151 0.9 8.7 0.00 0.00 0.00 38 1017.0
20260503182959 55 13 0.9 2.6 0.00 0.00 0.00 38 1017.2
20260503181459 51 313 1.7 7.0 0.00 0.00 0.00 40 1017.3
20260503175958 52 49 1.7 6.1 0.00 0.00 0.00 40 1017.4
20260503172959 49 155 1.7 7.8 0.00 0.00 0.00 44 1017.4
20260503171501 48 263 0.9 7.8 0.00 0.00 0.00 45 1017.7